"Pseudo-MPEC" for jkN2005

Created 2021 Nov 27 6:07:30 UT using Find_Orb

Click here for an explanation of pseudo-MPECs

 
 Astrometry: 
     jkN2005 LC2021 11 06.58279411 24 08.51 +15 18 20.4    ~B767 24.1 rVNEOCP568
     jkN2005 LC2021 11 06.62796411 24 09.07 +15 18 18.2    ~B767 23.9 rVNEOCP568
     jkN2005 LC2021 11 06.63826111 24 09.20 +15 18 17.7    ~B767 23.6 rVNEOCP568
     jkN2005 LC2021 11 06.63919411 24 09.21 +15 18 17.6    ~B767 24.2 rVNEOCP568

Station data:
(568) Mauna Kea  (N19.826116 W155.472200)  US/Hawaii.

Orbital elements:  jkN2005
   Perihelion 2015 Dec 13.453304 +/- 1285 TT = 10:52:45 (JD 2457369.953304)
Epoch 2021 Nov  7.0 TT = JDT 2459525.5   Ur: 0.2064           AutoNEOCP
M  23.42866568 +/- 87.779616        (J2000 ecliptic)
n   0.01086901 +/-                  Peri.   80.27036 +/- 77.580455
a  20.1840959 +/-                   Node    35.12455 +/- 39.204317
e   0.3259206 +/- 0.182022          Incl.   13.54749 +/- 55.832278
P  90.68                   H 12.2   G  0.15   U 11.5  SR
q 13.6056829 +/- 3.28415    Q 26.7625089 +/- 67.4588
From 4 observations 2021 Nov. 6 (81.2 min); mean residual 0".02
Residuals in arcseconds: 
211106 568  .00   .00     211106 568  .02+  .02+    
211106 568  .02-  .02+    211106 568  .00   .03-    

Ephemerides (geocentric):
Date (UTC) HH   RA              Dec         delta   r     elong  mag " sig PA
---- -- -- --  -------------   -----------  ------ ------ -----  --- ---- ---
2021 11 27 06  11 27 43.348   +15 07 06.20  14.903 14.738  78.5 24.2  33d  11
2021 11 27 07  11 27 43.685   +15 07 05.58  14.902 14.738  78.6 24.2  33d  11
2021 11 27 08  11 27 44.021   +15 07 04.96  14.901 14.738  78.6 24.2  33d  11
2021 11 27 09  11 27 44.357   +15 07 04.34  14.901 14.738  78.6 24.2  33d  11
2021 11 27 10  11 27 44.693   +15 07 03.73  14.900 14.738  78.7 24.2  33d  11
2021 11 27 11  11 27 45.028   +15 07 03.13  14.900 14.738  78.7 24.2  34d  11
2021 11 27 12  11 27 45.362   +15 07 02.52  14.899 14.739  78.8 24.2  34d  11
2021 11 27 13  11 27 45.697   +15 07 01.92  14.898 14.739  78.8 24.2  34d  11
2021 11 27 14  11 27 46.030   +15 07 01.32  14.898 14.739  78.9 24.2  34d  11
2021 11 27 15  11 27 46.364   +15 07 00.72  14.897 14.739  78.9 24.2  34d  11
2021 11 27 16  11 27 46.697   +15 07 00.13  14.896 14.739  78.9 24.2  34d  11
2021 11 27 17  11 27 47.030   +15 06 59.54  14.896 14.739  79.0 24.2  34d  11
2021 11 27 18  11 27 47.362   +15 06 58.96  14.895 14.739  79.0 24.2  34d  11
2021 11 27 19  11 27 47.693   +15 06 58.37  14.894 14.739  79.1 24.2  34d  11
2021 11 27 20  11 27 48.025   +15 06 57.79  14.894 14.739  79.1 24.2  34d  11
2021 11 27 21  11 27 48.356   +15 06 57.21  14.893 14.739  79.1 24.2  34d  11
2021 11 27 22  11 27 48.686   +15 06 56.64  14.892 14.739  79.2 24.2  34d  11
2021 11 27 23  11 27 49.016   +15 06 56.07  14.892 14.739  79.2 24.2  34d  11
2021 11 28 00  11 27 49.346   +15 06 55.50  14.891 14.739  79.3 24.2  34d  11
2021 11 28 01  11 27 49.675   +15 06 54.93  14.890 14.739  79.3 24.2  34d  11
2021 11 28 02  11 27 50.004   +15 06 54.37  14.890 14.739  79.3 24.2  34d  11
2021 11 28 03  11 27 50.333   +15 06 53.81  14.889 14.739  79.4 24.2  34d  11
2021 11 28 04  11 27 50.661   +15 06 53.26  14.889 14.739  79.4 24.2  34d  11
2021 11 28 05  11 27 50.988   +15 06 52.70  14.888 14.739  79.5 24.2  34d  11
2021 11 28 06  11 27 51.315   +15 06 52.15  14.887 14.739  79.5 24.2  34d  11
2021 11 28 07  11 27 51.642   +15 06 51.60  14.887 14.739  79.5 24.2  34d  11
2021 11 28 08  11 27 51.969   +15 06 51.06  14.886 14.739  79.6 24.2  34d  11
2021 11 28 09  11 27 52.294   +15 06 50.52  14.885 14.739  79.6 24.2  34d  11
2021 11 28 10  11 27 52.620   +15 06 49.98  14.885 14.739  79.7 24.2  34d  11
2021 11 28 11  11 27 52.945   +15 06 49.45  14.884 14.739  79.7 24.2  34d  11
2021 11 28 12  11 27 53.270   +15 06 48.91  14.883 14.739  79.7 24.2  34d  11
2021 11 28 13  11 27 53.594   +15 06 48.38  14.883 14.740  79.8 24.2  34d  11
2021 11 28 14  11 27 53.918   +15 06 47.86  14.882 14.740  79.8 24.2  34d  11
2021 11 28 15  11 27 54.241   +15 06 47.34  14.881 14.740  79.9 24.2  34d  11
2021 11 28 16  11 27 54.564   +15 06 46.82  14.881 14.740  79.9 24.2  34d  11
2021 11 28 17  11 27 54.887   +15 06 46.30  14.880 14.740  79.9 24.2  34d  11
2021 11 28 18  11 27 55.209   +15 06 45.79  14.879 14.740  80.0 24.2  34d  11
2021 11 28 19  11 27 55.530   +15 06 45.27  14.879 14.740  80.0 24.2  34d  11
2021 11 28 20  11 27 55.852   +15 06 44.77  14.878 14.740  80.1 24.2  34d  11
2021 11 28 21  11 27 56.173   +15 06 44.26  14.877 14.740  80.1 24.2  34d  11
2021 11 28 22  11 27 56.493   +15 06 43.76  14.877 14.740  80.1 24.2  34d  11
2021 11 28 23  11 27 56.813   +15 06 43.26  14.876 14.740  80.2 24.2  34d  11
2021 11 29 00  11 27 57.133   +15 06 42.77  14.875 14.740  80.2 24.2  34d  11
2021 11 29 01  11 27 57.452   +15 06 42.27  14.875 14.740  80.3 24.2  34d  11
2021 11 29 02  11 27 57.771   +15 06 41.78  14.874 14.740  80.3 24.2  34d  11
2021 11 29 03  11 27 58.089   +15 06 41.30  14.874 14.740  80.3 24.2  34d  11
2021 11 29 04  11 27 58.407   +15 06 40.81  14.873 14.740  80.4 24.2  34d  11
2021 11 29 05  11 27 58.724   +15 06 40.33  14.872 14.740  80.4 24.2  34d  11